This is the latest recevied weather packets stored in our database for station/object VE3TEJ. If no packets are shown the sender has not sent any weather packets the latest 10 day(s).
| Time | Temp. | Humidity | Pressure | Rain* | Wind** | Luminosity | Snow |
|---|---|---|---|---|---|---|---|
| 1778111257 | 8.33° C | 48% | 1011.1 hPa | 0 mm | - | - | - |
| 1778110959 | 8.33° C | 48% | 1011.3 hPa | 0 mm | - | - | - |
| 1778110659 | 8.33° C | 47% | 1011.1 hPa | 0 mm | - | - | - |
| 1778110358 | 8.33° C | 48% | 1011.3 hPa | 0 mm | - | - | - |
| 1778110058 | 8.89° C | 48% | 1011.3 hPa | 0 mm | - | - | - |
| 1778109758 | 8.89° C | 49% | 1011.1 hPa | 0 mm | - | - | - |
| 1778109458 | 8.89° C | 47% | 1011.3 hPa | 0 mm | - | - | - |
| 1778109158 | 8.89° C | 49% | 1011.2 hPa | 0 mm | - | - | - |
| 1778108859 | 8.89° C | 49% | 1011.3 hPa | 0 mm | - | - | - |
| 1778108559 | 8.89° C | 47% | 1011.2 hPa | 0 mm | - | - | - |
| 1778108258 | 8.89° C | 48% | 1011.4 hPa | 0 mm | - | - | - |
| 1778107958 | 8.89° C | 47% | 1011.3 hPa | 0 mm | - | - | - |
| 1778107658 | 8.89° C | 48% | 1011.4 hPa | 0 mm | - | - | - |
| 1778107357 | 9.44° C | 45% | 1011.5 hPa | 0 mm | - | - | - |
| 1778107059 | 8.89° C | 47% | 1011.3 hPa | 0 mm | - | - | - |
| 1778106758 | 8.89° C | 47% | 1011.4 hPa | 0 mm | - | - | - |
| 1778106458 | 8.89° C | 46% | 1011.2 hPa | 0 mm | - | - | - |
| 1778106158 | 8.89° C | 46% | 1011.2 hPa | 0 mm | - | - | - |
| 1778105857 | 8.89° C | 47% | 1011.3 hPa | 0 mm | - | - | - |
| 1778105559 | 9.44° C | 46% | 1011.3 hPa | 0 mm | - | - | - |
| 1778105258 | 9.44° C | 45% | 1011.2 hPa | 0 mm | - | - | - |
| 1778104958 | 9.44° C | 48% | 1011.2 hPa | 0 mm | - | - | - |
| 1778104658 | 9.44° C | 44% | 1011.4 hPa | 0 mm | - | - | - |
| 1778104357 | 8.89° C | 48% | 1011.1 hPa | 0 mm | - | - | - |
| 1778104059 | 8.89° C | 47% | 1011 hPa | 0 mm | - | - | - |
* Rain latest hour (hover to see other rain measurements)
** Current wind speed in m/s (hover to see current wind gust speed)